DW5993 Weather Reports


time (UTC)temp
C
wind
direction
speed
KPH
gust
KPH
rain 1hr
cm
rain 24hr
cm
rain mn
cm
humidity
%
barometer
mb
20210801204116 26 135 3.2 6.4 0.00 0.03 0.03 42 1030.0
20210801203117 26 135 1.6 3.2 0.00 0.03 0.03 44 1030.5
20210801202116 26 90 3.2 8.0 0.00 0.03 0.03 40 1030.5
20210801201116 25 225 3.2 3.2 0.00 0.03 0.03 43 1030.3
20210801200116 25 135 3.2 4.8 0.00 0.03 0.03 47 1030.6
20210801195116 25 158 3.2 8.0 0.00 0.03 0.03 47 1030.6
20210801194116 26 248 1.6 3.2 0.00 0.03 0.03 46 1031.3
20210801193116 25 180 3.2 4.8 0.00 0.03 0.03 48 1031.4
20210801192117 24 113 1.6 3.2 0.00 0.03 0.03 45 1031.0
20210801191116 25 135 1.6 3.2 0.00 0.03 0.03 48 1031.4
20210801190116 24 158 3.2 6.4 0.00 0.03 0.03 48 1031.4
20210801185116 25 158 1.6 8.0 0.00 0.03 0.03 49 1032.0
20210801184116 23 90 1.6 4.8 0.00 0.03 0.03 52 1031.3
20210801183116 23 338 4.8 9.7 0.00 0.03 0.03 53 1031.5
20210801182116 23 180 4.8 4.8 0.00 0.03 0.03 51 1031.5
20210801181117 23 203 3.2 8.0 0.00 0.03 0.03 54 1031.7
20210801180116 23 90 3.2 6.4 0.00 0.03 0.03 56 1031.9
20210801175116 22 0.0 0.0 0.00 0.03 0.03 60 1031.6
20210801174116 22 0 3.2 4.8 0.00 0.03 0.03 61 1031.9
20210801173116 22 113 1.6 1.6 0.00 0.03 0.03 58 1031.9
20210801172116 23 68 3.2 6.4 0.00 0.03 0.03 60 1032.4
20210801171117 22 203 1.6 3.2 0.00 0.03 0.03 57 1032.1
20210801170116 23 68 3.2 6.4 0.00 0.03 0.03 58 1032.5
20210801165116 23 0 1.6 3.2 0.00 0.03 0.03 60 1032.5
20210801164116 22 158 1.6 3.2 0.00 0.03 0.03 57 1032.0
20210801163116 22 113 3.2 4.8 0.00 0.03 0.03 52 1031.9
20210801162116 22 0.0 1.6 0.00 0.03 0.03 59 1032.1
20210801161116 21 180 1.6 3.2 0.00 0.03 0.03 63 1031.8
20210801160116 21 158 1.6 3.2 0.00 0.03 0.03 62 1031.8
20210801155116 21 180 3.2 3.2 0.00 0.03 0.03 63 1031.7
20210801154117 21 0.0 0.0 0.00 0.03 0.03 65 1031.8
20210801153116 20 135 1.6 3.2 0.00 0.03 0.03 65 1031.4
20210801152116 20 203 1.6 3.2 0.00 0.03 0.03 64 1031.3
20210801151116 20 315 1.6 3.2 0.00 0.03 0.03 69 1031.4
20210801150116 19 315 1.6 3.2 0.00 0.03 0.03 71 1031.2
20210801145116 19 0.0 1.6 0.00 0.03 0.03 72 1031.6
20210801144116 18 0.0 0.0 0.03 0.03 0.03 76 1031.2
20210801143116 19 0.0 1.6 0.03 0.03 0.03 74 1031.2
20210801142116 18 0.0 0.0 0.03 0.03 0.03 80 1031.3
20210801141116 18 0.0 0.0 0.03 0.03 0.03 76 1031.1
20210801140116 18 315 1.6 1.6 0.03 0.03 0.03 78 1030.6
20210801135116 17 315 1.6 3.2 0.03 0.03 0.03 86 1030.7
20210801134116 17 0.0 0.0 0.00 0.00 0.00 91 1030.8
20210801133116 17 0.0 0.0 0.00 0.00 0.00 91 1030.3
20210801132116 16 0.0 0.0 0.00 0.00 0.00 93 1030.3
20210801131116 16 0.0 0.0 0.00 0.00 0.00 93 1030.2
20210801130116 16 0.0 0.0 0.00 0.00 0.00 93 1029.8
20210801125116 16 0.0 0.0 0.00 0.00 0.00 93 1029.5
20210801124116 15 0.0 0.0 0.00 0.00 0.00 94 1029.6
20210801123116 15 0.0 0.0 0.00 0.00 0.00 93 1029.5
20210801122116 15 0.0 0.0 0.00 0.00 0.00 94 1029.1
20210801121116 15 0.0 0.0 0.00 0.00 0.00 94 1029.0
20210801120116 15 0.0 0.0 0.00 0.00 0.00 94 1028.8
20210801115116 15 0.0 0.0 0.00 0.00 0.00 94 1028.8
20210801114117 15 0.0 0.0 0.00 0.00 0.00 94 1028.7
20210801113116 15 0.0 1.6 0.00 0.00 0.00 95 1029.0
20210801112116 15 0.0 0.0 0.00 0.00 0.00 94 1028.9
20210801111116 15 0.0 0.0 0.00 0.00 0.00 94 1028.9
20210801110116 15 0.0 0.0 0.00 0.00 0.00 94 1028.3
20210801105116 14 0.0 0.0 0.00 0.00 0.00 94 1028.4
20210801104116 14 0.0 0.0 0.00 0.00 0.00 94 1028.3
20210801103116 14 0.0 1.6 0.00 0.00 0.00 94 1028.3
20210801102116 14 315 1.6 1.6 0.00 0.00 0.00 94 1028.5
20210801101116 14 0.0 0.0 0.00 0.00 0.00 93 1028.5
20210801100116 15 0.0 0.0 0.00 0.00 0.00 93 1028.5
20210801095116 15 0.0 0.0 0.00 0.00 0.00 93 1028.4
20210801094116 15 0.0 0.0 0.00 0.00 0.00 93 1028.4
20210801093116 15 0.0 0.0 0.00 0.00 0.00 93 1028.7
20210801092116 15 0.0 0.0 0.00 0.00 0.00 93 1029.0
20210801091116 15 0.0 0.0 0.00 0.00 0.00 93 1029.7
20210801090117 15 0.0 0.0 0.00 0.00 0.00 92 1029.6
20210801085116 15 0.0 1.6 0.00 0.00 0.00 92 1029.9
20210801084116 16 0.0 0.0 0.00 0.00 0.00 92 1029.9
20210801083116 16 0.0 1.6 0.00 0.00 0.00 92 1030.5
20210801082116 16 0.0 0.0 0.00 0.00 0.00 91 1030.2
20210801081116 16 0.0 0.0 0.00 0.00 0.00 91 1030.3
20210801080117 16 0.0 0.0 0.00 0.00 0.00 90 1030.6
20210801075116 16 0.0 0.0 0.00 0.00 0.00 89 1030.3
20210801074116 17 0.0 0.0 0.00 0.00 0.00 89 1031.0
20210801073116 17 0.0 1.6 0.00 0.00 0.00 87 1031.0
20210801072116 16 0.0 0.0 0.00 0.00 0.00 88 1031.0
20210801071116 16 0.0 1.6 0.00 0.00 0.00 91 1030.8
20210801070116 16 0.0 0.0 0.00 0.00 0.00 92 1031.1
20210801065116 16 0.0 0.0 0.00 0.00 0.00 92 1031.3
20210801064116 16 0.0 0.0 0.00 0.00 0.00 92 1031.3
20210801063116 16 0.0 0.0 0.00 0.00 0.00 91 1031.4
20210801062116 16 0.0 0.0 0.00 0.00 0.00 90 1031.5
20210801061116 16 0.0 0.0 0.00 0.00 0.00 91 1031.0
20210801060116 17 0.0 0.0 0.00 0.00 0.00 90 1031.3
20210801055116 17 0.0 0.0 0.00 0.00 0.00 91 1030.9
20210801054117 16 0.0 0.0 0.00 0.00 0.00 91 1030.9
20210801053116 17 0.0 0.0 0.00 0.00 0.00 90 1030.9
20210801052117 17 0.0 0.0 0.00 0.00 0.00 90 1031.1
20210801051117 17 0.0 0.0 0.00 0.00 0.00 90 1030.8
20210801050116 16 0.0 0.0 0.00 0.00 0.00 90 1030.8
20210801045117 16 0.0 0.0 0.00 0.00 0.00 90 1030.9
20210801044116 16 0.0 0.0 0.00 0.00 0.00 90 1031.2
20210801043116 16 0.0 0.0 0.00 0.00 0.00 90 1030.8
20210801042116 16 0.0 0.0 0.00 0.00 0.00 89 1030.8
20210801041116 16 0.0 0.0 0.00 0.00 0.00 89 1030.5
20210801040117 16 0.0 0.0 0.00 0.00 0.00 90 1030.4
20210801035116 16 0.0 0.0 0.00 0.00 0.00 89 1030.2
20210801034117 16 0.0 0.0 0.00 0.00 0.00 90 1030.1
20210801033116 16 0.0 0.0 0.00 0.00 0.00 89 1029.9
20210801032116 16 0.0 0.0 0.00 0.00 0.00 88 1029.8
20210801031116 16 0.0 1.6 0.00 0.00 0.00 88 1029.6
20210801030116 16 0.0 0.0 0.00 0.00 0.00 87 1029.3
20210801025117 17 0.0 0.0 0.00 0.00 0.00 88 1029.5
20210801024116 17 0.0 1.6 0.00 0.00 0.00 88 1029.1
20210801023116 17 0.0 0.0 0.00 0.00 0.00 87 1029.0
20210801022117 17 0.0 1.6 0.00 0.00 0.00 85 1028.8
20210801021116 17 315 1.6 3.2 0.00 0.00 0.00 85 1028.3
20210801020116 17 203 1.6 4.8 0.00 0.00 0.00 87 1028.4
20210801015116 17 0.0 1.6 0.00 0.00 0.00 90 1028.0
20210801014116 17 0.0 0.0 0.00 0.00 0.00 90 1028.1
20210801013116 16 0.0 0.0 0.00 0.00 0.00 89 1027.8
20210801012117 16 0.0 0.0 0.00 0.00 0.00 89 1027.7
20210801011116 16 0.0 1.6 0.00 0.00 0.00 87 1027.6
20210801010116 16 293 1.6 3.2 0.00 0.00 0.00 86 1027.5
20210801005116 16 338 1.6 3.2 0.00 0.00 0.00 86 1027.4
20210801004117 16 293 3.2 6.4 0.00 0.00 0.00 87 1027.4
20210801003117 17 293 1.6 3.2 0.00 0.00 0.00 89 1027.8
20210801002116 16 293 4.8 11.3 0.00 0.00 0.00 91 1027.5
20210801001116 16 293 3.2 4.8 0.00 0.00 0.00 91 1027.5
20210801000116 16 315 1.6 1.6 0.00 0.00 0.00 92 1027.6
20210731235116 16 293 3.2 4.8 0.00 0.00 0.00 92 1027.7
20210731234116 16 270 3.2 4.8 0.00 0.00 0.00 92 1027.8
20210731233116 17 270 3.2 4.8 0.00 0.00 0.00 92 1028.1
20210731232117 17 0.0 0.0 0.00 0.00 0.00 91 1027.6
20210731231116 17 0.0 1.6 0.00 0.00 0.00 90 1027.8
20210731230116 17 0.0 0.0 0.00 0.00 0.00 90 1027.6
20210731225116 17 270 1.6 3.2 0.00 0.00 0.00 90 1027.5
20210731224116 17 315 1.6 1.6 0.00 0.00 0.00 91 1027.4
20210731223116 17 270 1.6 3.2 0.00 0.00 0.00 91 1027.4
20210731222116 17 315 1.6 3.2 0.00 0.00 0.00 92 1027.5
20210731221116 17 0.0 0.0 0.00 0.00 0.00 92 1027.4
20210731220117 17 0.0 0.0 0.00 0.00 0.00 92 1027.1
20210731215116 17 293 1.6 4.8 0.00 0.00 0.00 91 1027.1
20210731214116 17 0.0 1.6 0.00 0.00 0.00 89 1027.1
20210731213116 18 68 1.6 3.2 0.00 0.00 0.00 87 1027.2
20210731212116 20 135 1.6 1.6 0.00 0.00 0.00 82 1027.2
20210731211116 21 0.0 1.6 0.00 0.00 0.00 71 1027.2
20210731210116 21 0.0 0.0 0.00 0.00 0.00 72 1027.7
20210731205116 22 135 1.6 3.2 0.00 0.00 0.00 67 1027.5